Location: Chuathbaluk
(61.5726°N, 159.2454°W)
Time: 16:19:34
(UTC+00:00)

ITAMSAT 1 - Pass Details

Date: 20 January 2021
Orbit: 784 x 796 km, 98.9° (Epoch: 05 March)

Event Time Altitude Azimuth Distance (km) Brightness Sun altitude
Rises 16:58:26 0° 20° (NNE) 3,292 11.0 -16.3°
Reaches altitude 10° 17:00:53 10° 27° (NNE) 2,359 10.3 -16.0°
Maximum altitude 17:05:51 43° 99° (E) 1,098 9.0 -15.4°
Drops below altitude 10° 17:10:46 10° 170° (S) 2,346 10.4 -14.8°
Sets 17:13:12 0° 178° (S) 3,272 11.1 -14.6°
